Location: El Diablo
(32.4667°N, 116.4500°W)
Time: 03:30:29
(UTC+00:00)

Cosmos 468 Rocket - Pass Details

Date: 10 September 2024
Orbit: 741 x 776 km, 74.0° (Epoch: 06 October)

Event Time Altitude Azimuth Distance (km) Brightness Sun altitude
Rises 12:19:24 0° 341° (NNW) 3,221 7.2 -14.8°
Reaches altitude 10° 12:21:46 10° 340° (NNW) 2,298 6.4 -14.3°
Maximum altitude 12:26:58 78° 256° (WSW) 786 3.9 -13.3°
Drops below altitude 10° 12:32:12 10° 170° (S) 2,306 6.5 -12.2°
Sets 12:34:35 0° 168° (SSE) 3,233 7.2 -11.7°
